Regional Weather Roundup
Issued by NWS

Home | Current Version | Previous Version | Text Only | Print | Product List | Glossary On
Versions: 1 2 3 4 5 6 7 8 9 10 11 12 13 14 15 16 17 18 19 20 21 22 23 24 25 26 27
000
ASUS46 KPQR 250710
RWROR

OREGON REGIONAL WEATHER ROUNDUP
NATIONAL WEATHER SERVICE PORTLAND OR
1200 AM PDT THU MAY 25 2017

NOTE: "FAIR" INDICATES FEW OR NO CLOUDS BELOW 12,000 FEET WITH
NO SIGNIFICANT WEATHER AND/OR OBSTRUCTIONS TO VISIBILITY.

ORZ001>013-250800-
NORTHWEST OREGON


CITY           SKY/WX    TMP DP  RH WIND       PRES   REMARKS
ASTORIA        PTCLDY    50  45  83 NW8       29.96F
NEWPORT        DRIZZLE   50  46  87 N5        30.00F
PORTLAND       PTCLDY    52  44  74 VRB3      29.94F
VANCOUVER WA   CLEAR     50  44  80 CALM      29.94F
SCAPPOOSE      CLOUDY    51  44  77 N3        29.93F
HILLSBORO      CLEAR     47  44  90 NW5       29.94F
AURORA         CLOUDY    54  42  64 N7        29.95F
MCMINNVILLE    CLOUDY    50  44  80 SW6       29.95F
SALEM          CLOUDY    53  42  66 NW6       29.93F
CORVALLIS      CLOUDY    52  43  71 CALM      29.95F
EUGENE         CLEAR     45  44  97 NE5       29.94S
$$

ORZ021-028-250800-
SOUTHWEST OREGON


CITY           SKY/WX    TMP DP  RH WIND       PRES   REMARKS
NORTH BEND     CLEAR     52  46  82 N13       29.96F
BROOKINGS      CLEAR     53  44  71 NW8       29.80F
ROSEBURG       CLEAR     57  43  59 N10       29.89F
SEXTON SUMMIT  CLEAR     43  35  73 N12G20    29.88F
MEDFORD        CLEAR     56  38  50 SE3       29.86S
$$

ORZ014>016-041-250800-
COLUMBIA GORGE


CITY           SKY/WX    TMP DP  RH WIND       PRES   REMARKS
TROUTDALE      CLEAR     52  43  71 W6        29.93F
HOOD RIVER     PTCLDY    52  41  66 W3        29.88F
THE DALLES     PTCLDY    55  41  59 NW7       29.85S
$$

ORZ029>031-041-044-049-050-061>064-502-503-505>511-250800-
EASTERN OREGON


CITY           SKY/WX    TMP DP  RH WIND       PRES   REMARKS
REDMOND        CLEAR     34  28  79 CALM      29.85F
BEND           CLEAR     41  32  70 CALM      29.82S
PRINEVILLE     CLEAR     45  36  70 MISG      29.86F
KLAMATH FALLS  CLEAR     47  30  51 CALM      29.82S
HERMISTON      MOCLDY    53  41  63 SW7       29.80S
PENDLETON      MOCLDY    48  38  68 W9        29.80S
JOHN DAY       PTCLDY    47  34  61 CALM      29.83F
MEACHAM        CLOUDY    46  29  51 CALM      29.81S
LA GRANDE      CLOUDY    52  34  50 NW12      29.79F
BAKER CITY     MOCLDY    41  34  76 N5        29.80S
BURNS          PTCLDY    39  26  59 NE3       29.82S
ROME             N/A     49  22  34 NE5       29.79R
ONTARIO        CLEAR     52  29  41 NW8       29.76S
$$




USA.gov is the U.S. government's official web portal to all federal, state and local government web resources and services.